Weather History for Oceana NAS, VA

Change the Weather History Date:

Tuesday, September 11, 2012

  Actual Average Record
Temperature  
Mean Temperature 65 °F -  
Max Temperature 75 °F 78 °F 96 °F (2007)
Min Temperature 57 °F 63 °F 55 °F (1998)
Growing Degree Days 15 (Base 50)    
Moisture  
Dew Point 50 °F    
Average Humidity 55    
Maximum Humidity 83    
Minimum Humidity 39    
Precipitation  
Precipitation 0.00 in - - ()
Sea Level Pressure  
Sea Level Pressure 30.25 in    
Wind  
Wind Speed 7 mph (NE)    
Max Wind Speed 13 mph    
Max Gust Speed -    
Visibility 10 miles    
Events      
Averages and records for this station are not official NWS values.
T = Trace of Precipitation, MM = Missing Value Source: NWS Daily Summary

Daily Weather History Graph

Daily Weather History Graph

Search for Another Location

Airport:

Trip Planner

Search our weather history database for the weather conditions in past years. The results will help you decide how hot, cold, wet, or windy it might be!

Date:

Astronomy

Sep. 11, 2012 Rise Set
Actual Time 6:43 AM EDT 7:16 PM EDT
Civil Twilight 6:17 AM EDT 7:43 PM EDT
Nautical Twilight 5:46 AM EDT 8:13 PM EDT
Astronomical Twilight 5:15 AM EDT 8:44 PM EDT
Moon 2:04 AM EDT (9/11) 4:20 PM EDT (9/11)
Length of Visible Light 13h 25m
Length of Day
12h 33m
Waning Crescent, 21% of the Moon is Illuminated
Sep 11
Waning Crescent
Sep 15
New
Sep 22
First Quarter
Sep 29
Full
Oct 8
Last Quarter

Hourly Weather History & Observations

Time (EDT) Temp. Dew Point Humidity Pressure Visibility Wind Dir Wind Speed Gust Speed Precip Events Conditions
12:56 AM 66.9 °F 52.0 °F 59% 30.15 in 10.0 mi NNE 8.1 mph - N/A   Scattered Clouds
1:56 AM 64.9 °F 50.0 °F 58% 30.16 in 10.0 mi NNE 8.1 mph - N/A   Partly Cloudy
2:56 AM 64.0 °F 50.0 °F 60% 30.16 in 10.0 mi NNE 4.6 mph - N/A   Partly Cloudy
3:56 AM 64.0 °F 48.9 °F 58% 30.17 in 10.0 mi North 8.1 mph - N/A   Scattered Clouds
4:56 AM 64.0 °F 46.9 °F 54% 30.18 in 10.0 mi NNE 6.9 mph - N/A   Mostly Cloudy
5:56 AM 63.0 °F 46.9 °F 56% 30.20 in 10.0 mi North 5.8 mph - N/A   Scattered Clouds
6:56 AM 63.0 °F 46.0 °F 54% 30.23 in 10.0 mi NE 9.2 mph - N/A   Scattered Clouds
7:56 AM 68.0 °F 50.0 °F 52% 30.25 in 10.0 mi NE 5.8 mph - N/A   Scattered Clouds
8:56 AM 71.1 °F 52.0 °F 51% 30.27 in 10.0 mi NE 11.5 mph - N/A   Scattered Clouds
9:56 AM 72.0 °F 52.0 °F 49% 30.29 in 10.0 mi NE 10.4 mph - N/A   Scattered Clouds
10:56 AM 73.0 °F 48.9 °F 42% 30.30 in 10.0 mi ENE 12.7 mph - N/A   Scattered Clouds
11:56 AM 73.0 °F 46.9 °F 39% 30.30 in 10.0 mi ENE 12.7 mph - N/A   Scattered Clouds
12:56 PM 73.9 °F 48.0 °F 40% 30.30 in 10.0 mi NNE 11.5 mph - N/A   Partly Cloudy
1:56 PM 73.9 °F 48.0 °F 40% 30.29 in 10.0 mi ENE 8.1 mph - N/A   Partly Cloudy
2:56 PM 73.0 °F 50.0 °F 44% 30.27 in 10.0 mi East 8.1 mph - N/A   Partly Cloudy
3:56 PM 73.0 °F 50.0 °F 44% 30.27 in 10.0 mi ENE 9.2 mph - N/A   Partly Cloudy
4:56 PM 72.0 °F 48.9 °F 44% 30.27 in 10.0 mi NNE 6.9 mph - N/A   Partly Cloudy
5:56 PM 72.0 °F 48.9 °F 44% 30.27 in 10.0 mi NE 4.6 mph - N/A   Scattered Clouds
6:56 PM 69.1 °F 50.0 °F 51% 30.27 in 10.0 mi Calm Calm - N/A   Scattered Clouds
7:56 PM 63.0 °F 53.1 °F 70% 30.28 in 10.0 mi Calm Calm - N/A   Partly Cloudy
8:56 PM 60.1 °F 52.0 °F 75% 30.30 in 10.0 mi Calm Calm - N/A   Clear
9:56 PM 57.9 °F 52.0 °F 81% 30.30 in 10.0 mi Calm Calm - N/A   Clear
10:56 PM 57.9 °F 52.0 °F 81% 30.31 in 10.0 mi Calm Calm - N/A   Clear
11:56 PM 57.0 °F 52.0 °F 83% 30.31 in 10.0 mi Calm Calm - N/A   Clear